COSMOS 1275 DEB, 39943

Orbit data source: Space-Track

COSMOS 1275 DEB, 39943 is space debris in LEO originally from a launch on Thu, 04 Jun 1981 UTC launched from the Plesetsk Missile And Space Complex (PKMTR). Debris objects in space refer to the collection of defunct objects orbiting the Earth. Examples of debris include non-operational satellites, rocket bodies, and fragments generated from explosions, collisions, or faulty payload assembly.

Loading next visibility...
Identifier
39943, 1981-053ND
Orbit
LEO
Country
Flag of CISCIS
Related business
Manufacturer
Unknown
Mission
Spacecraft
Bus & Motor
Unknown
Mass
Unknown
Launch date (UTC)
1981-06-04 (45 years ago)
Launch vehicle
Unknown
Launch site
Plesetsk Missile And Space Complex (PKMTR)
Object type
Payload
Rocket body
Debris
Shape & HBR
Unknown shape, 0.1 m
Radar Cross Section
Small (<0.1 m²)

Expand to show TLE details & history
Last TLE update: 1 day ago

TLE from 1 day ago
0 COSMOS 1275 DEB
1 39943U 81053ND  26144.67068953  .00000518  00000-0  59949-3 0  9999
2 39943  83.0646 219.9614 0151279  95.2612  56.3240 13.62436067592700
Epoch: 2026-05-24T16:05Z
TLE epoch observation values (Epoch: 2026-05-24T16:05:47.575Z)
Latitude
26.78044°
Longitude
-87.25772°
Altitude
969.161 km
Speed
7.4 km/s
True Right ascension
02h 25m 50s
True Declination
26° 38' 47"
Sunlit
Object was in daylight at epoch
Visualization orbit readout
Latitude
Unknown
Longitude
Unknown
Altitude
Unknown
Speed
Unknown
Apparent Right ascension
Unknown
Apparent Declination
Unknown
Sunlit
N/A
Visualization observer readout
Local Sidereal Time
06:27:33
Azimuth
Unknown
Elevation
Unknown
Doppler factor
Unknown
Orbital elements
Apogee altitude
1,135.992 km
Perigee altitude
912.034 km
Semi-major axis
7,402.15 km
Eccentricity
0.01513
Inclination
83.0646°
RAAN
219.9614°
Arg. of periapsis
95.2612°
True anomaly
57.78174°
Mean anomaly
56.324°
Eccentric anomaly
57.05135°
Mean motion
3.40805 °/min
Orbital period
105.63 mins
BSTAR
0.00059949
Loading maneuver chart data...
Computing Atmospheric mass density...
Loading historical data...
Loading historical data...
Loading historical data...
Loading historical data...
Loading historical data...
Loading historical data...
Loading historical data...

Documentation

Showing up to 5 results
|